Weather History for KRST - February, 2014

Change the Weather History Date:

Wednesday, February 19, 2014

  Actual Average Record
Temperature  
Mean Temperature 27 °F 22 °F  
Max Temperature 36 °F 29 °F 59 °F (1930)
Min Temperature 17 °F 14 °F -30 °F (1929)
Degree Days  
Heating Degree Days 38 43  
Month to date heating degree days 1089 878  
Since 1 July heating degree days 6186 5486  
Cooling Degree Days 0 0  
Month to date cooling degree days 0 0  
Year to date cooling degree days 0 0  
Moisture  
Dew Point 24 °F    
Average Humidity 77    
Maximum Humidity 85    
Minimum Humidity 69    
Precipitation  
Precipitation 0.00 in 0.03 in 0.67 in (2002)
Month to date precipitation 0.53 0.52  
Year to date precipitation 1.53 1.38  
Snow  
Snow 0.00 in 0.30 in 4.80 in (1952)
Month to date snowfall 8.4 5.8  
Since 1 July snowfall 37.6 37.2  
Snow Depth 15.00 in    
Sea Level Pressure  
Sea Level Pressure 29.84 in    
Wind  
Wind Speed 11 mph (SSW)    
Max Wind Speed 17 mph    
Max Gust Speed 20 mph    
Visibility 10 miles    
Events      
T = Trace of Precipitation, MM = Missing Value Source: NWS Daily Summary

Daily Weather History Graph

Daily Weather History Graph

Search for Another Location

Airport or City:

Trip Planner

Search our weather history database for the weather conditions in past years. The results will help you decide how hot, cold, wet, or windy it might be!

Date:

Astronomy

Feb. 19, 2014 Rise Set
Actual Time 7:02 AM CST 5:45 PM CST
Civil Twilight 6:33 AM CST 6:14 PM CST
Nautical Twilight 6:00 AM CST 6:48 PM CST
Astronomical Twilight 5:26 AM CST 7:21 PM CST
Moon 10:50 PM CST (2/19) 8:58 AM CST (2/19)
Length of Visible Light 11h 41m
Length of Day
10h 42m
Waning Gibbous, 79% of the Moon is Illuminated
Feb 19
Waning Gibbous
Feb 22
Last Quarter
Mar 1
New
Mar 8
First Quarter
Mar 16
Full

Hourly Weather History & Observations

Time (CST) Temp. Windchill Dew Point Humidity Pressure Visibility Wind Dir Wind Speed Gust Speed Precip Events Conditions
12:54 AM 27.0 °F 15.6 °F 21.0 °F 78% 29.80 in 10.0 mi NW 13.8 mph - N/A   Clear
1:54 AM 26.1 °F 14.5 °F 19.9 °F 78% 29.81 in 10.0 mi WNW 13.8 mph - N/A   Clear
2:54 AM 24.1 °F 14.4 °F 18.0 °F 77% 29.83 in 10.0 mi West 9.2 mph - N/A   Clear
3:54 AM 21.0 °F 10.6 °F 17.1 °F 85% 29.84 in 10.0 mi West 9.2 mph - N/A   Clear
4:54 AM 21.0 °F 12.4 °F 17.1 °F 85% 29.84 in 10.0 mi West 6.9 mph - N/A   Clear
5:54 AM 19.9 °F 7.9 °F 16.0 °F 85% 29.86 in 10.0 mi West 11.5 mph - N/A   Clear
6:54 AM 21.0 °F 11.4 °F 18.0 °F 88% 29.86 in 9.0 mi West 8.1 mph - N/A   Clear
7:54 AM 21.0 °F 8.1 °F 17.1 °F 85% 29.89 in 6.0 mi WSW 13.8 mph - N/A   Clear
8:54 AM 24.1 °F 12.5 °F 19.9 °F 84% 29.89 in 7.0 mi WSW 12.7 mph - N/A   Clear
9:54 AM 27.0 °F 18.0 °F 23.0 °F 85% 29.90 in 8.0 mi WSW 9.2 mph - N/A   Clear
10:54 AM 30.0 °F 24.1 °F 26.1 °F 85% 29.89 in 10.0 mi SSW 5.8 mph - N/A   Clear
11:54 AM 33.1 °F 26.1 °F 27.0 °F 78% 29.89 in 10.0 mi SSW 8.1 mph - N/A   Clear
12:54 PM 33.1 °F 24.9 °F 28.0 °F 82% 29.87 in 10.0 mi SSW 10.4 mph - N/A   Clear
1:54 PM 35.1 °F 26.9 °F 28.9 °F 78% 29.86 in 10.0 mi SSW 11.5 mph - N/A   Clear
2:54 PM 35.1 °F 25.9 °F 28.9 °F 78% 29.87 in 10.0 mi South 13.8 mph - N/A   Clear
3:54 PM 36.0 °F 28.5 °F 28.9 °F 76% 29.86 in 10.0 mi South 10.4 mph - N/A   Clear
4:54 PM 36.0 °F 28.0 °F 28.0 °F 73% 29.84 in 10.0 mi SSE 11.5 mph - N/A   Clear
5:54 PM 34.0 °F 26.0 °F 27.0 °F 75% 29.83 in 10.0 mi SSE 10.4 mph - N/A   Clear
6:54 PM 33.1 °F 23.4 °F 27.0 °F 78% 29.83 in 10.0 mi SSE 13.8 mph - N/A   Clear
7:54 PM 30.9 °F 21.2 °F 26.1 °F 82% 29.81 in 9.0 mi SSE 12.7 mph - N/A   Clear
8:54 PM 30.9 °F 21.7 °F 26.1 °F 82% 29.81 in 9.0 mi SSE 11.5 mph - N/A   Clear
9:54 PM 32.0 °F 22.5 °F 26.1 °F 79% 29.81 in 10.0 mi SSE 12.7 mph - N/A   Clear
10:54 PM 33.1 °F 23.9 °F 25.0 °F 72% 29.78 in 10.0 mi SSE 12.7 mph - N/A   Clear
11:54 PM 33.1 °F 23.0 °F 26.1 °F 75% 29.75 in 10.0 mi SSE 15.0 mph - N/A   Partly Cloudy